Home   Weather   Salina   Past weeks

Flag for USA Past Weather in Salina, Kansas, USA — Yesterday and Last 2 Weeks

Now
43 °F

Light rain. Fog.


Feels Like: 35 °F
Forecast: 38 / 46 °F
Wind: 18 mph from North

Location: Salina Municipal Airport

Current Time: Apr 30, 2017 at 2:11:03 am

Latest Report: Apr 30, 2017 at 12:53 am


Visibility: 3 mi

Pressure: 29.79 "Hg

Humidity: 93%

Dew Point: 41 °F

Location of SalinaLocation

Past Weather in Salina — Graph

°F

Salina Temperature Yesterday

Maximum temperature yesterday: 47 °F (at 3:17 pm)
Minimum temperature yesterday: 43 °F (at 4:53 am)
Average temperature yesterday: 45 °F

High & Low Weather Summary for the Past Weeks

 TemperatureHumidityPressure
High86 °F (Apr 15, 2:53 pm)93% (Apr 17, 3:53 am)30.24 "Hg (Apr 17, 3:53 am)
Low32 °F (Apr 27, 5:53 am)29% (Apr 22, 5:53 pm)29.36 "Hg (Apr 25, 5:53 am)
Average58 °F68%29.87 "Hg
* Reported Apr 15 12:53 am — Apr 30 12:53 am, Salina, Weather by CustomWeather, © 2017

Note: Actual official high and low records may vary slightly from our data, if they occured in-between our weather recording intervals... More about our weather records

Advertising

Salina Weather History for the Previous 24 Hours

Scroll right to see more
 ConditionsComfort  
Time TempWeatherWind HumidityBarometerVisibility
12:53 am
Sun, Apr 30
43 °FLight rain. Fog.18 mph93%29.79 "Hg3 mi
12:38 am43 °FLight rain. Fog.20 mph89%29.80 "Hg3 mi
12:24 am43 °FLight rain. Fog.18 mph93%29.81 "Hg3 mi
12:07 am43 °FLight rain. Fog.16 mph93%29.84 "Hg2 mi
11:53 pm
Sat, Apr 29
43 °FLight rain. Fog.21 mph93%29.85 "Hg3 mi
10:53 pm43 °FLight rain. Fog.20 mph93%29.85 "Hg3 mi
10:17 pm44 °FLight rain. Fog.18 mph89%29.84 "Hg3 mi
10:02 pm44 °FThundershowers. Fog.16 mph89%29.84 "Hg3 mi
9:53 pm44 °FLight rain. Fog.18 mph89%29.84 "Hg3 mi
9:17 pm44 °FLight rain. Fog.20 mph89%29.84 "Hg4 mi
8:53 pm45 °FLight rain. Fog.22 mph86%29.85 "Hg6 mi
8:34 pm45 °FLight rain. Mostly cloudy.20 mph86%29.84 "Hg7 mi
7:53 pm45 °FLight rain. Fog.18 mph90%29.85 "Hg4 mi
6:53 pm46 °FLight rain. Fog.21 mph89%29.84 "Hg4 mi
6:22 pm46 °FLight rain. Fog.23 mph89%29.82 "Hg6 mi
5:53 pm47 °FLight rain. Fog.15 mph90%29.84 "Hg3 mi
5:25 pm47 °FLight rain. Fog.15 mph90%29.84 "Hg3 mi
4:53 pm47 °FLight rain. Fog.20 mph90%29.85 "Hg2 mi
3:53 pm47 °FLight rain. Fog.20 mph90%29.85 "Hg2 mi
3:36 pm47 °FLight rain. Fog.18 mph90%29.85 "Hg2 mi
3:17 pm47 °FLight rain. Fog.17 mph90%29.84 "Hg3 mi
1:53 pm46 °FLow clouds.17 mph89%29.83 "Hg10 mi
12:53 pm45 °FLight rain. Low clouds.21 mph90%29.87 "Hg8 mi
11:53 am45 °FLight rain. Low clouds.18 mph90%29.90 "Hg7 mi
10:53 am45 °FLight rain. Low clouds.16 mph90%29.90 "Hg8 mi
9:53 am45 °FLight rain. Low clouds.20 mph86%29.90 "Hg7 mi
8:53 am44 °FLight rain. Low clouds.14 mph89%29.94 "Hg9 mi
7:53 am44 °FLight rain. Fog.16 mph89%29.93 "Hg6 mi
6:53 am44 °FRain. Low clouds.12 mph89%29.99 "Hg7 mi
6:35 am44 °FRain. Fog.15 mph89%29.97 "Hg6 mi
5:53 am43 °FRain. Fog.12 mph93%29.97 "Hg5 mi
4:53 am43 °FRain. Fog.18 mph93%29.95 "Hg5 mi
3:53 am44 °FRain. Low clouds.17 mph89%29.91 "Hg7 mi
2:53 am44 °FLow clouds.20 mph89%29.88 "Hg9 mi
Weather by CustomWeather, © 2017

See weather overviewHow to use our weather pages